Regional Weather Roundup
Issued by NWS Burlington, VT

Home | Current Version | Previous Version | Text Only | Print | Product List | Glossary On
Versions: 1 2 3 4 5 6 7 8 9 10 11 12 13 14 15 16 17 18 19 20 21 22 23 24 25 26 27 28 29 30 31 32 33 34 35 36 37 38 39 40 41 42 43 44 45 46 47 48 49 50
000
ASUS41 KBTV 231730
RWRBTV
VERMONT REGIONAL WEATHER ROUNDUP
NATIONAL WEATHER SERVICE BURLINGTON VT
100 PM EDT MON OCT 23 2017

NOTE: "FAIR" INDICATES FEW OR NO CLOUDS BELOW 12,000 FEET WITH NO
SIGNIFICANT WEATHER AND/OR OBSTRUCTIONS TO VISIBILITY.

* THESE REPORTS ARE NOT UNDER NWS QUALITY CONTROL AND/OR DO NOT
  REPORT WEATHER SUCH AS PRECIPITATION AND FOG.

VTZ001>019-231800-
_____VERMONT_____


CITY           SKY/WX    TMP DP  RH WIND       PRES   REMARKS
BURLINGTON     PTSUNNY   70  54  56 S21G26    30.15F
MORRISVILLE    MOSUNNY   63  47  55 S5        30.20F
ST. JOHNSBURY*   N/A     64  51  62 MISG      30.21F
LYNDONVILLE*   FAIR      63  49  61 SE12G17   30.23F
MIDDLEBURY*    PTSUNNY   67  54  61 S9G16     30.17F
RUTLAND*       MOSUNNY   72  53  51 S13       30.19F
SPRINGFIELD    PTSUNNY   59  55  87 SE15G25   30.25F
HIGHGATE*      FAIR      69  50  50 S13G21    30.12F
NEWPORT*       FAIR      66  47  51 SE15      30.18F
BENNINGTON     CLOUDY    69  56  62 SE16G22   30.22F
SUTTON*          N/A     61 N/A N/A MISG        N/A
ISLAND POND*     N/A     68 N/A N/A S8          N/A
GALLUP MILLS*    N/A     66 N/A N/A MISG        N/A
UNION VILLAGE*   N/A     66 N/A N/A MISG        N/A

_____LAKE CHAMPLAIN_____


CITY           SKY/WX    TMP DP  RH WIND       PRES   REMARKS
BURTON ISLAND*   N/A     66  54  63 S23G29      N/A
COLCHESTER RF*   N/A     64  55  72 S22         N/A
DIAMOND ISL*     N/A     66  54  63 S24G30      N/A

$$

NYZ007-026>031-035-052-083-087-231800-
_____NORTHERN NEW YORK_____


CITY           SKY/WX    TMP DP  RH WIND       PRES   REMARKS
PLATTSBURGH    MOSUNNY   66  52  60 SE16G25   30.13F
SARANAC LAKE   MOSUNNY   66  45  46 S13G23    30.13F
MASSENA        CLOUDY    74  54  49 SW9       30.08F
OGDENSBURG*    FAIR      73  53  50 SW14G22   30.07F
POTSDAM*       SUNNY     73  54  49 SW14G22   30.07F
STARK FALLS*     N/A     64 N/A N/A S16         N/A
WATERTOWN      CLOUDY    69  53  56 S13G25    30.06F
FT DRUM        CLOUDY    72  51  48 S20G26    30.07F
ALBANY         CLOUDY    69  57  65 S13G23    30.20F
GLENS FALLS    PTSUNNY   67  57  70 S12       30.20F

$$
NHZ002-005-011-231800-
_____NEW HAMPSHIRE_____


CITY           SKY/WX    TMP DP  RH WIND       PRES   REMARKS
LEBANON        CLOUDY    64  53  67 SW8       30.24F
KEENE          CLOUDY    64  56  75 S8        30.27F
MT WASHINGTON  MOSUNNY   50  21  32 SW25G39     N/A
PLYMOUTH       CLOUDY    62  49  63 E9        30.27F
WHITEFIELD     SUNNY     71  47  42 VRB3      30.22F

$$

_____REGIONAL QUEBEC LOCATIONS_____


CITY           SKY/WX    TMP DP  RH WIND       PRES   REMARKS
MONTREAL       PTSUNNY   70  46  43 SE12      30.09F
QUEBEC CITY    PTSUNNY   61  45  55 NE6       30.16F
SHERBROOKE     SUNNY     72  41  33 S13G23    30.16F

_____REGIONAL ONTARIO LOCATIONS_____


CITY           SKY/WX    TMP DP  RH WIND       PRES   REMARKS
OTTAWA         PTSUNNY   68  52  56 S10G20    30.06F

______KEY______
VSB  - VISIBILITY IN MILES
WCI  - WIND CHILL INDEX
HX   - HEAT INDEX
$$
NNNN




USA.gov is the U.S. government's official web portal to all federal, state and local government web resources and services.